SCP
0 0 0 0 1 1 1 1 1 1 1 1 1 1 1 1 1 1 1 0 0 0 0 0 0 0 1 1 1 1 1 1 1 1 1 1 1 1
0 0 0 0 0 1 1 1 1 1 1 1 1 1 1 1 1 1 1 1 0 0 0 0 0 0 0 1 1 1 1 1 1 1 1 1 1 1
0 0 0 0 0 1 1 1 1 1 1 1 1 1 1 1 1 1 1 1 0 0 0 0 0 0 0 0 0 0 1 0 0 0 0 1 1 1
0 0 0 0 0 1 1 1 1 1 1 1 0 0 1 1 1 1 1 1 0 0 0 0 0 0 0 0 0 0 0 0 0 0 0 0 1 1
0 0 0 0 0 0 1 1 1 1 1 1 0 0 1 1 1 1 1 1 0 0 0 0 0 0 0 0 0 0 0 0 0 0 0 0 0 0
0 0 0 0 0 0 1 1 1 1 1 1 1 0 0 0 0 0 0 1 0 0 0 0 0 0 0 0 0 0 0 0 0 0 0 0 0 0
0 0 0 0 0 0 0 0 0 1 1 1 1 0 0 0 0 0 0 1 1 1 1 1 1 1 1 0 0 0 0 0 0 0 0 0 0 0
0 0 0 0 0 0 0 0 0 0 1 1 0 0 0 0 0 0 1 1 1 1 1 1 1 1 1 1 0 0 0 0 0 0 0 0 0 0
1 1 0 0 0 0 0 0 0 0 0 0 0 0 0 0 0 0 1 1 1 1 1 1 1 1 1 1 1 0 0 0 0 0 0 0 0 0
2 1 1 0 0 0 0 0 0 0 0 0 0 0 0 0 0 1 1 1 1 1 1 1 1 1 1 1 1 0 0 0 0 0 0 0 0 0
2 2 1 0 0 0 0 0 0 0 0 0 0 0 0 0 0 1 1 1 1 1 1 1 1 1 1 1 1 0 0 0 0 0 0 0 0 0
3 2 1 0 0 0 0 0 0 0 0 0 0 0 0 0 0 0 0 0 0 0 1 1 1 1 1 1 1 1 0 0 0 0 0 0 0 0
2 2 1 0 0 0 0 0 0 0 1 0 0 0 0 0 0 0 0 0 0 0 0 1 1 1 1 1 1 1 1 0 0 0 0 0 0 0
1 1 1 0 0 0 0 0 0 0 0 0 0 0 0 0 0 0 0 0 0 0 0 0 0 1 1 1 1 1 1 1 1 0 0 0 0 0
0 0 0 0 0 0 0 0 0 0 0 0 0 0 0 0 0 0 0 0 0 0 0 0 0 0 0 0 0 1 1 1 1 1 0 0 0 0
0 0 0 0 0 0 0 0 0 0 0 0 0 0 0 0 0 0 0 0 0 0 0 0 0 0 0 0 0 0 1 1 1 1 1 0 0 0
1 1 1 1 1 0 0 0 0 0 0 0 0 0 0 0 0 0 0 0 0 0 0 0 0 0 0 0 0 0 1 1 1 1 1 0 0 0
1 1 2 2 1 1 1 0 0 0 0 0 0 0 0 0 0 0 0 0 0 0 0 0 0 0 0 0 0 0 0 0 0 0 0 0 0 0
1 1 2 2 1 1 1 0 0 0 0 0 0 0 0 0 0 0 0 0 0 0 0 0 0 0 0 0 0 0 0 0 0 0 0 0 0 0
0 1 2 2 1 1 1 1 0 0 0 0 0 0 0 0 0 0 0 0 0 0 0 0 0 0 0 0 0 0 0 0 0 0 0 0 0 0
0 1 1 2 1 1 1 1 0 0 0 0 0 0 0 0 0 0 0 0 0 0 0 0 0 0 0 0 0 0 0 0 0 0 0 0 0 0
0 1 1 1 1 1 1 1 0 0 0 0 0 0 0 0 0 0 0 0 0 0 0 0 0 0 0 0 0 0 0 0 0 0 0 0 0 0
0 1 1 1 1 1 1 1 0 0 0 0 0 0 0 0 0 0 0 0 0 0 0 0 0 0 0 0 0 0 0 0 0 0 0 0 0 0
Wind_Speed
2 2 2 1 2 2 2 2 2 2 1 1 1 0 0 0 1 2 2 4 2 2 3 4 4 6 6 6 6 6 7 7 8 9 10 11 11 12
2 3 3 2 2 2 2 2 2 3 2 0 0 0 1 1 1 1 1 4 3 3 3 3 4 4 5 5 5 5 5 5 5 7 8 9 9 9
3 3 3 3 2 2 2 2 2 3 2 1 0 0 1 0 0 0 1 2 3 4 3 3 3 3 4 4 4 4 5 5 5 5 6 7 7 8
3 3 3 2 3 3 2 3 2 2 3 2 1 0 1 0 0 1 1 1 1 5 3 2 2 3 3 2 3 3 4 4 4 4 4 6 7 7
4 4 4 3 4 3 3 3 2 2 2 2 1 0 1 0 0 1 1 1 1 3 5 4 3 3 3 3 2 2 2 3 3 3 3 4 5 6
5 5 5 4 4 4 4 4 3 3 3 3 2 2 1 1 1 1 1 1 1 1 1 2 5 5 4 3 2 2 2 2 3 3 3 3 3 4
6 6 5 3 3 4 3 3 3 3 3 3 3 2 2 1 1 1 1 2 2 1 2 2 3 3 4 5 4 2 2 2 2 2 3 3 3 4
7 6 5 6 5 5 4 4 4 4 3 3 3 3 2 2 1 2 2 2 2 1 2 1 2 2 2 2 3 3 2 1 1 1 2 3 4 4
8 7 5 4 6 6 7 8 6 4 5 4 4 3 3 2 3 3 2 2 1 0 2 2 1 1 1 3 5 4 3 2 1 0 1 2 3 5
8 8 7 7 6 6 6 6 5 5 5 5 4 3 2 2 3 3 2 2 1 0 2 2 1 1 1 3 6 4 4 2 1 0 1 2 4 5
8 8 8 7 5 5 7 6 6 5 3 2 2 2 4 3 2 2 2 3 3 2 1 2 1 1 1 2 5 6 5 3 2 1 1 3 4 6
7 7 6 6 6 8 8 7 7 6 5 6 5 5 4 4 2 3 2 3 2 2 1 2 1 2 2 2 1 2 3 4 3 2 1 1 4 4
7 7 6 8 8 8 8 6 5 4 5 5 5 4 4 3 3 2 1 2 2 1 1 1 2 2 2 2 1 1 1 1 1 1 3 2 1 3
7 6 5 10 10 9 7 5 5 5 5 5 4 4 4 3 3 2 1 1 1 1 1 2 2 2 3 3 2 1 1 2 2 2 2 1 3 4
7 4 5 10 10 8 8 7 8 6 6 5 5 4 4 3 3 3 3 2 2 1 1 1 2 3 3 3 3 2 2 2 1 2 3 3 3 3
8 6 8 8 7 5 8 8 7 6 5 5 5 4 4 4 4 3 3 3 3 2 2 1 2 3 3 3 3 3 3 2 2 3 3 3 3 3
8 7 8 9 9 8 7 7 7 7 6 6 5 5 5 5 4 3 3 3 3 3 2 1 1 1 2 3 4 3 3 3 3 3 4 5 4 4
9 9 10 10 10 9 9 8 8 7 7 7 6 6 6 5 5 4 4 4 3 3 2 1 2 2 3 2 2 4 3 3 3 3 5 6 6 4
11 11 11 11 10 10 9 9 8 8 7 7 7 6 6 6 5 5 5 4 3 3 2 2 2 3 4 3 2 1 3 3 4 4 5 6 7 6
11 11 11 11 10 10 10 9 8 8 8 8 7 7 7 6 6 6 5 5 4 3 3 2 2 2 3 3 2 2 3 5 5 5 6 6 6 7
12 12 11 11 10 10 10 9 9 9 9 8 8 8 7 7 6 6 5 5 4 4 4 3 1 1 3 3 4 4 2 3 4 6 7 7 7 7
11 12 11 11 11 10 10 10 10 9 10 9 8 8 7 7 7 7 6 6 5 4 3 2 2 3 3 4 5 5 5 4 4 7 8 8 7 7
11 11 11 11 11 10 10 12 12 10 10 9 9 8 8 7 6 6 6 5 5 4 4 3 3 3 3 4 5 5 6 6 5 5 5 7 11 14
Wind_Direction
299 291 285 288 289 298 298 290 284 267 212 148 186 73 236 62 55 232 185 125 164 208 211 205 205 204 203 209 214 214 216 221 222 219 219 222 225 227
278 291 285 273 281 282 279 275 278 283 274 108 188 322 341 258 151 270 107 135 176 193 205 208 208 200 202 204 209 211 213 215 219 225 226 227 228 231
254 262 266 274 270 265 259 258 260 266 258 248 251 256 239 251 164 269 225 224 157 147 176 194 203 201 198 201 204 206 207 207 213 229 235 232 230 234
273 268 269 246 246 256 250 246 245 255 256 244 232 306 331 24 4 270 227 210 181 123 136 145 166 176 178 183 187 189 197 202 207 221 238 240 238 240
260 263 265 262 246 230 237 239 234 230 236 235 231 274 272 273 309 260 211 217 222 146 156 157 147 150 155 166 170 172 186 198 205 211 229 248 249 246
252 257 261 260 259 247 233 234 232 226 220 228 223 218 230 238 237 246 212 188 214 198 159 161 155 162 162 165 167 163 173 193 207 206 216 241 255 258
245 244 247 265 304 289 273 247 225 221 216 219 218 211 210 214 224 245 240 222 189 229 219 193 180 188 176 172 174 163 173 185 202 208 216 232 246 257
244 241 230 215 214 220 243 274 291 254 232 221 224 217 218 220 229 238 232 231 206 166 254 210 205 198 175 145 105 119 142 166 187 216 236 246 256 261
247 241 234 222 219 217 200 204 219 245 266 264 245 236 232 217 223 228 230 248 259 16 278 222 199 188 138 99 102 116 117 116 128 187 273 274 271 269
241 240 235 227 221 229 222 212 209 202 216 233 247 255 269 264 247 250 240 231 222 186 280 253 216 211 167 129 111 111 109 100 92 45 321 301 285 273
236 237 239 232 190 206 226 215 205 192 161 146 35 56 58 32 302 233 211 217 218 181 234 262 260 265 228 178 136 132 129 120 98 48 345 324 306 281
228 225 222 237 191 195 219 216 214 204 193 177 181 184 186 161 213 239 233 240 237 196 139 265 258 273 246 185 176 171 157 140 143 141 86 357 333 291
227 221 207 188 196 199 226 228 215 215 203 198 194 189 188 180 182 204 229 264 263 240 79 286 269 264 267 259 237 238 304 313 274 201 166 142 339 305
234 226 200 175 186 196 208 192 180 206 213 204 201 195 192 185 176 166 157 132 12 16 51 312 287 286 276 265 252 232 278 300 301 299 298 204 220 216
240 224 182 168 177 189 189 186 194 208 210 209 207 199 193 185 164 154 152 138 125 98 42 314 283 272 270 269 274 273 282 278 284 291 297 301 300 291
228 197 175 172 192 189 177 191 209 213 214 211 207 191 174 172 174 172 172 175 180 171 152 217 275 271 267 269 268 271 275 275 280 294 298 294 288 283
206 204 198 192 196 200 200 196 198 197 200 202 194 187 183 183 180 179 183 191 201 195 179 184 219 240 269 279 261 258 265 272 283 302 299 291 285 280
207 213 206 203 201 199 198 196 196 198 196 192 191 189 188 187 181 179 187 195 200 200 200 199 227 226 220 208 291 274 275 289 300 299 291 288 285 284
213 219 213 207 204 201 200 198 195 193 190 190 190 189 187 185 184 185 188 193 195 197 196 211 239 254 259 251 162 240 295 301 299 291 289 291 292 297
220 221 216 208 204 201 199 197 192 186 187 191 190 188 187 186 188 191 192 195 194 195 197 206 231 259 280 302 300 256 252 286 292 295 298 296 292 286
218 221 218 209 203 200 196 192 189 187 187 189 190 188 188 188 190 194 189 173 200 203 209 206 140 278 276 268 258 254 257 217 271 290 302 299 296 291
220 218 215 209 202 197 191 188 188 187 187 189 187 187 188 190 189 191 189 186 196 202 209 191 178 221 243 256 270 281 286 281 230 226 247 268 289 298
224 220 213 205 200 193 190 189 189 187 186 187 185 184 184 185 185 186 188 192 192 195 201 205 210 226 245 260 274 284 291 296 295 289 272 234 234 251